Weather History for Mount Pleasant, IA

Change the Weather History Date:

Sunday, August 18, 2013

  Actual Average Record
Temperature  
Mean Temperature 68 °F -  
Max Temperature 83 °F 85 °F 104 °F (1983)
Min Temperature 54 °F 63 °F 46 °F (2012)
Cooling Degree Days 4    
Growing Degree Days 18 (Base 50)    
Moisture  
Dew Point 56 °F    
Average Humidity 68    
Maximum Humidity 92    
Minimum Humidity 38    
Precipitation  
Precipitation 0.00 in - - ()
Sea Level Pressure  
Sea Level Pressure 30.16 in    
Wind  
Wind Speed 2 mph (SE)    
Max Wind Speed 8 mph    
Max Gust Speed -    
Visibility 10 miles    
Events      
Averages and records for this station are not official NWS values.
T = Trace of Precipitation, MM = Missing Value Source: NWS Daily Summary

Daily Weather History Graph

Daily Weather History Graph

Search for Another Location

Airport:

Trip Planner

Search our weather history database for the weather conditions in past years. The results will help you decide how hot, cold, wet, or windy it might be!

Date:

Astronomy

Aug. 18, 2013 Rise Set
Actual Time 6:19 AM CDT 7:59 PM CDT
Civil Twilight 5:49 AM CDT 8:28 PM CDT
Nautical Twilight 5:14 AM CDT 9:04 PM CDT
Astronomical Twilight 4:36 AM CDT 9:41 PM CDT
Moon 6:06 PM CDT (8/18) 3:28 AM CDT (8/18)
Length of Visible Light 14h 38m
Length of Day
13h 40m
Waxing Gibbous, 92% of the Moon is Illuminated
Aug 18
Waxing Gibbous
Aug 20
Full
Aug 28
Last Quarter
Sep 5
New
Sep 12
First Quarter

Hourly Weather History & Observations

Time (CDT) Temp. Heat Index Dew Point Humidity Pressure Visibility Wind Dir Wind Speed Gust Speed Precip Events Conditions
12:15 AM 60.8 °F - 55.0 °F 81% 30.16 in 10.0 mi East 3.5 mph - N/A   Clear
12:35 AM 59.9 °F - 55.2 °F 84% 30.16 in 10.0 mi Calm Calm - N/A   Clear
12:55 AM 60.1 °F - 54.9 °F 83% 30.16 in 10.0 mi ESE 4.6 mph - N/A   Clear
1:15 AM 59.4 °F - 54.7 °F 84% 30.17 in 10.0 mi Calm Calm - N/A   Clear
1:35 AM 59.0 °F - 54.5 °F 85% 30.16 in 10.0 mi Calm Calm - N/A   Clear
1:55 AM 60.1 °F - 55.0 °F 83% 30.17 in 10.0 mi Calm Calm - N/A   Clear
2:15 AM 59.4 °F - 55.6 °F 87% 30.17 in 10.0 mi Calm Calm - N/A   Clear
2:35 AM 58.5 °F - 54.9 °F 88% 30.17 in 10.0 mi Calm Calm - N/A   Clear
2:55 AM 57.4 °F - 53.4 °F 87% 30.17 in 10.0 mi Calm Calm - N/A   Clear
3:15 AM 56.1 °F - 53.2 °F 90% 30.17 in 10.0 mi Calm Calm - N/A   Clear
3:35 AM 55.6 °F - 52.9 °F 91% 30.17 in 7.0 mi Calm Calm - N/A   Clear
3:55 AM 55.6 °F - 53.1 °F 91% 30.17 in 7.0 mi Calm Calm - N/A   Clear
4:15 AM 55.0 °F - 52.5 °F 91% 30.17 in 7.0 mi Calm Calm - N/A   Clear
4:35 AM 54.9 °F - 52.5 °F 92% 30.17 in 7.0 mi Calm Calm - N/A   Clear
4:55 AM 54.5 °F - 51.6 °F 90% 30.17 in 7.0 mi Calm Calm - N/A   Clear
5:15 AM 54.1 °F - 51.8 °F 92% 30.17 in 7.0 mi Calm Calm - N/A   Clear
5:35 AM 54.0 °F - 51.3 °F 91% 30.18 in 7.0 mi Calm Calm - N/A   Clear
5:55 AM 54.1 °F - 51.8 °F 92% 30.19 in 7.0 mi Calm Calm - N/A   Clear
6:15 AM 54.9 °F - 52.3 °F 91% 30.19 in 10.0 mi Calm Calm - N/A   Clear
6:35 AM 55.6 °F - 52.7 °F 90% 30.19 in 7.0 mi ENE 3.5 mph - N/A   Clear
6:55 AM 54.9 °F - 51.8 °F 89% 30.20 in 7.0 mi Calm Calm - N/A   Clear
7:15 AM 56.8 °F - 53.6 °F 89% 30.20 in 7.0 mi Calm Calm - N/A   Clear
7:35 AM 59.2 °F - 55.6 °F 88% 30.21 in 7.0 mi Calm Calm - N/A   Clear
7:55 AM 60.4 °F - 56.8 °F 88% 30.21 in 7.0 mi Calm Calm - N/A   Clear
8:15 AM 63.3 °F - 57.0 °F 80% 30.21 in 10.0 mi Calm Calm - N/A   Clear
8:35 AM 65.3 °F - 58.1 °F 77% 30.22 in 10.0 mi Calm Calm - N/A   Clear
8:55 AM 67.1 °F - 58.5 °F 74% 30.22 in 10.0 mi Calm Calm - N/A   Clear
9:15 AM 69.4 °F - 59.2 °F 70% 30.21 in 10.0 mi Calm Calm - N/A   Clear
9:35 AM 71.6 °F - 56.8 °F 60% 30.21 in 10.0 mi ESE 3.5 mph - N/A   Clear
9:55 AM 73.0 °F - 56.3 °F 56% 30.21 in 10.0 mi Calm Calm - N/A   Clear
10:15 AM 73.8 °F - 56.1 °F 54% 30.21 in 10.0 mi ENE 3.5 mph - N/A   Clear
10:35 AM 75.0 °F - 57.0 °F 53% 30.21 in 10.0 mi East 3.5 mph - N/A   Clear
10:55 AM 76.3 °F - 56.7 °F 51% 30.20 in 10.0 mi ENE 3.5 mph - N/A   Clear
11:15 AM 76.8 °F - 55.6 °F 48% 30.20 in 10.0 mi SE 3.5 mph - N/A   Clear
11:35 AM 76.6 °F - 54.9 °F 47% 30.19 in 10.0 mi Calm Calm - N/A   Clear
11:55 AM 77.7 °F - 55.9 °F 47% 30.19 in 10.0 mi Calm Calm - N/A   Clear
12:15 PM 78.4 °F - 55.6 °F 45% 30.18 in 10.0 mi SSE 3.5 mph - N/A   Clear
12:35 PM 78.6 °F - 54.7 °F 43% 30.18 in 10.0 mi South 4.6 mph - N/A   Clear
12:55 PM 79.7 °F - 55.0 °F 43% 30.17 in 10.0 mi SE 6.9 mph - N/A   Clear
1:15 PM 80.2 °F 80.2 °F 54.7 °F 41% 30.16 in 10.0 mi East 3.5 mph - N/A   Clear
1:35 PM 80.2 °F 80.4 °F 55.6 °F 43% 30.16 in 10.0 mi East 8.1 mph - N/A   Clear
1:55 PM 79.7 °F - 56.1 °F 44% 30.15 in 10.0 mi East 8.1 mph - N/A   Scattered Clouds
2:15 PM 81.5 °F 81.1 °F 55.9 °F 41% 30.15 in 10.0 mi SE 6.9 mph - N/A   Scattered Clouds
2:35 PM 81.7 °F 81.2 °F 55.0 °F 40% 30.14 in 10.0 mi SSE 5.8 mph - N/A   Scattered Clouds
2:55 PM 82.4 °F 81.7 °F 54.9 °F 39% 30.14 in 10.0 mi SE 4.6 mph - N/A   Scattered Clouds
3:15 PM 83.1 °F 82.3 °F 55.9 °F 39% 30.13 in 10.0 mi SE 6.9 mph - N/A   Scattered Clouds
3:35 PM 82.6 °F 81.7 °F 54.3 °F 38% 30.13 in 10.0 mi SSE 5.8 mph - N/A   Clear
3:55 PM 82.6 °F 81.7 °F 54.5 °F 38% 30.12 in 10.0 mi South 4.6 mph - N/A   Clear
4:15 PM 82.6 °F 81.7 °F 54.5 °F 38% 30.11 in 10.0 mi Calm Calm - N/A   Clear
4:35 PM 82.0 °F 81.4 °F 55.0 °F 39% 30.11 in 10.0 mi South 5.8 mph - N/A   Scattered Clouds
4:55 PM 83.1 °F 82.2 °F 54.9 °F 38% 30.11 in 10.0 mi South 5.8 mph - N/A   Scattered Clouds
5:15 PM 80.8 °F 81.0 °F 57.6 °F 45% 30.11 in 10.0 mi SSE 6.9 mph - N/A   Scattered Clouds
5:35 PM 82.8 °F 82.1 °F 56.5 °F 40% 30.11 in 10.0 mi SE 3.5 mph - N/A   Scattered Clouds
5:55 PM 79.9 °F - 58.3 °F 48% 30.12 in 10.0 mi SSE 3.5 mph - N/A   Mostly Cloudy
6:15 PM 79.7 °F - 60.3 °F 51% 30.12 in 10.0 mi Calm Calm - N/A   Mostly Cloudy
6:35 PM 78.4 °F - 59.9 °F 53% 30.11 in 10.0 mi SSE 5.8 mph - N/A   Scattered Clouds
6:55 PM 78.1 °F - 61.3 °F 56% 30.10 in 10.0 mi SE 4.6 mph - N/A   Mostly Cloudy
7:15 PM 76.5 °F - 61.2 °F 59% 30.10 in 10.0 mi SE 5.8 mph - N/A   Scattered Clouds
7:35 PM 74.7 °F - 61.0 °F 62% 30.10 in 10.0 mi ESE 4.6 mph - N/A   Clear
7:55 PM 73.4 °F - 61.0 °F 65% 30.10 in 10.0 mi SE 3.5 mph - N/A   Clear
8:15 PM 72.1 °F - 61.3 °F 69% 30.10 in 10.0 mi Calm Calm - N/A   Clear
8:35 PM 71.4 °F - 61.2 °F 70% 30.11 in 10.0 mi ESE 4.6 mph - N/A   Clear
8:55 PM 69.4 °F - 61.2 °F 75% 30.11 in 10.0 mi ESE 4.6 mph - N/A   Scattered Clouds
9:15 PM 67.5 °F - 60.8 °F 79% 30.11 in 10.0 mi ESE 5.8 mph - N/A   Scattered Clouds
9:35 PM 67.6 °F - 60.6 °F 78% 30.12 in 10.0 mi SE 4.6 mph - N/A   Clear
9:55 PM 66.6 °F - 60.1 °F 80% 30.12 in 10.0 mi SE 5.8 mph - N/A   Clear
10:15 PM 65.7 °F - 59.9 °F 82% 30.11 in 10.0 mi SE 5.8 mph - N/A   Clear
10:35 PM 66.2 °F - 60.1 °F 81% 30.12 in 10.0 mi SE 5.8 mph - N/A   Clear
10:55 PM 64.9 °F - 59.4 °F 82% 30.12 in 10.0 mi SE 4.6 mph - N/A   Clear
11:15 PM 64.8 °F - 60.1 °F 85% 30.12 in 10.0 mi SE 4.6 mph - N/A   Clear
11:35 PM 64.0 °F - 60.1 °F 87% 30.12 in 10.0 mi SSE 3.5 mph - N/A   Clear
11:55 PM 63.5 °F - 59.5 °F 87% 30.12 in 10.0 mi SSE 5.8 mph - N/A   Clear